owner,sensor,date,latitude,longitude,air_pressure(mBar),qcFlag 
TABS,ioos:station:wmo:42044:1,2016-04-01T00:00:00Z,26.1914,-97.0507,1002.42,11111222 
TABS,ioos:station:wmo:42044:1,2016-04-01T00:30:00Z,26.1914,-97.0507,1002.83,11111222 
TABS,ioos:station:wmo:42044:1,2016-04-01T01:00:00Z,26.1914,-97.0507,1002.91,11111222 
TABS,ioos:station:wmo:42044:1,2016-04-01T01:30:00Z,26.1914,-97.0507,1003.54,11111222 
TABS,ioos:station:wmo:42044:1,2016-04-01T02:00:00Z,26.1914,-97.0507,1004.06,11111222 
TABS,ioos:station:wmo:42044:1,2016-04-01T02:30:00Z,26.1914,-97.0507,1004.27,11111222 
TABS,ioos:station:wmo:42044:1,2016-04-01T03:00:00Z,26.1914,-97.0507,1004.76,11111222 
TABS,ioos:station:wmo:42044:1,2016-04-01T03:30:00Z,26.1914,-97.0507,1004.7,11111222 
TABS,ioos:station:wmo:42044:1,2016-04-01T04:00:00Z,26.1914,-97.0507,1004.34,11111222 
TABS,ioos:station:wmo:42044:1,2016-04-01T04:30:00Z,26.1914,-97.0507,1004.15,11111222 
TABS,ioos:station:wmo:42044:1,2016-04-01T05:00:00Z,26.1914,-97.0507,1003.72,11111222 
TABS,ioos:station:wmo:42044:1,2016-04-01T05:30:00Z,26.1914,-97.0507,1004.21,11111222 
TABS,ioos:station:wmo:42044:1,2016-04-01T06:00:00Z,26.1914,-97.0507,1004.52,11111222 
TABS,ioos:station:wmo:42044:1,2016-04-01T06:30:00Z,26.1914,-97.0507,1005.29,11111222 
TABS,ioos:station:wmo:42044:1,2016-04-01T07:00:00Z,26.1914,-97.0507,1004.38,11111222 
TABS,ioos:station:wmo:42044:1,2016-04-01T07:30:00Z,26.1914,-97.0507,1003.8,11111222 
TABS,ioos:station:wmo:42044:1,2016-04-01T08:00:00Z,26.1914,-97.0507,1003.21,11111222 
TABS,ioos:station:wmo:42044:1,2016-04-01T08:30:00Z,26.1914,-97.0507,1002.63,11111222 
TABS,ioos:station:wmo:42044:1,2016-04-01T09:00:00Z,26.1914,-97.0507,1002.92,11111222 
TABS,ioos:station:wmo:42044:1,2016-04-01T09:30:00Z,26.1914,-97.0507,1003.05,11111222 
TABS,ioos:station:wmo:42044:1,2016-04-01T10:00:00Z,26.1914,-97.0507,1003.43,11111222 
TABS,ioos:station:wmo:42044:1,2016-04-01T10:30:00Z,26.1914,-97.0507,1003.74,11111222 
TABS,ioos:station:wmo:42044:1,2016-04-01T11:00:00Z,26.1914,-97.0507,1004.12,11111222 
TABS,ioos:station:wmo:42044:1,2016-04-01T11:30:00Z,26.1914,-97.0507,1004.16,11111222 
TABS,ioos:station:wmo:42044:1,2016-04-01T12:00:00Z,26.1914,-97.0507,1004.47,11111222 
TABS,ioos:station:wmo:42044:1,2016-04-01T12:30:00Z,26.1914,-97.0507,1004.85,11111222 
TABS,ioos:station:wmo:42044:1,2016-04-01T13:00:00Z,26.1914,-97.0507,1005.14,11111222 
TABS,ioos:station:wmo:42044:1,2016-04-01T13:30:00Z,26.1914,-97.0507,1005.2,11111222 
TABS,ioos:station:wmo:42044:1,2016-04-01T14:00:00Z,26.1914,-97.0507,1005.39,11111222 
TABS,ioos:station:wmo:42044:1,2016-04-01T14:30:00Z,26.1914,-97.0507,1005.44,11111222 
TABS,ioos:station:wmo:42044:1,2016-04-01T15:00:00Z,26.1914,-97.0507,1005.77,11111222 
TABS,ioos:station:wmo:42044:1,2016-04-01T15:30:00Z,26.1914,-97.0507,1006.51,11111222 
TABS,ioos:station:wmo:42044:1,2016-04-01T16:00:00Z,26.1914,-97.0507,1006.78,11111222 
TABS,ioos:station:wmo:42044:1,2016-04-01T16:30:00Z,26.1914,-97.0507,1007.17,11111222 
TABS,ioos:station:wmo:42044:1,2016-04-01T17:00:00Z,26.1914,-97.0507,1007.26,11111222 
TABS,ioos:station:wmo:42044:1,2016-04-01T17:30:00Z,26.1914,-97.0507,1007.22,11111222 
TABS,ioos:station:wmo:42044:1,2016-04-01T18:00:00Z,26.1914,-97.0507,1007.13,11111222 
TABS,ioos:station:wmo:42044:1,2016-04-01T18:30:00Z,26.1914,-97.0507,1007.03,11111222 
TABS,ioos:station:wmo:42044:1,2016-04-01T19:00:00Z,26.1914,-97.0507,1007.05,11111222 
TABS,ioos:station:wmo:42044:1,2016-04-01T19:30:00Z,26.1914,-97.0507,1006.07,11111222 
TABS,ioos:station:wmo:42044:1,2016-04-01T20:00:00Z,26.1914,-97.0507,1007.0,11111222 
TABS,ioos:station:wmo:42044:1,2016-04-01T20:30:00Z,26.1914,-97.0507,1007.13,11111222 
TABS,ioos:station:wmo:42044:1,2016-04-01T21:00:00Z,26.1914,-97.0507,1007.39,11111222 
TABS,ioos:station:wmo:42044:1,2016-04-01T21:30:00Z,26.1914,-97.0507,1007.58,11111222 
TABS,ioos:station:wmo:42044:1,2016-04-01T22:00:00Z,26.1914,-97.0507,1007.71,11111222 
TABS,ioos:station:wmo:42044:1,2016-04-01T22:30:00Z,26.1914,-97.0507,1008.22,11111222 
TABS,ioos:station:wmo:42044:1,2016-04-01T23:00:00Z,26.1914,-97.0507,1008.43,11111222 
TABS,ioos:station:wmo:42044:1,2016-04-01T23:30:00Z,26.1914,-97.0507,1009.35,11111222 
TABS,ioos:station:wmo:42044:1,2016-04-02T00:00:00Z,26.1914,-97.0507,1008.59,11111222 
TABS,ioos:station:wmo:42044:1,2016-04-02T00:30:00Z,26.1914,-97.0507,1009.35,11111222 
TABS,ioos:station:wmo:42044:1,2016-04-02T01:00:00Z,26.1914,-97.0507,1011.94,11111222 
TABS,ioos:station:wmo:42044:1,2016-04-02T01:30:00Z,26.1914,-97.0507,1012.6,11111222 
TABS,ioos:station:wmo:42044:1,2016-04-02T02:00:00Z,26.1914,-97.0507,1013.56,11111222 
TABS,ioos:station:wmo:42044:1,2016-04-02T02:30:00Z,26.1914,-97.0507,1014.43,11111222 
TABS,ioos:station:wmo:42044:1,2016-04-02T03:00:00Z,26.1914,-97.0507,1015.09,11111222 
TABS,ioos:station:wmo:42044:1,2016-04-02T03:30:00Z,26.1914,-97.0507,1016.18,11111222 
TABS,ioos:station:wmo:42044:1,2016-04-02T04:00:00Z,26.1914,-97.0507,1016.12,11111222 
TABS,ioos:station:wmo:42044:1,2016-04-02T04:30:00Z,26.1914,-97.0507,1016.5,11111222 
TABS,ioos:station:wmo:42044:1,2016-04-02T05:00:00Z,26.1914,-97.0507,1016.7,11111222 
TABS,ioos:station:wmo:42044:1,2016-04-02T05:30:00Z,26.1914,-97.0507,1017.59,11111222 
TABS,ioos:station:wmo:42044:1,2016-04-02T06:00:00Z,26.1914,-97.0507,1018.21,11111222 
TABS,ioos:station:wmo:42044:1,2016-04-02T06:30:00Z,26.1914,-97.0507,1018.59,11111222 
TABS,ioos:station:wmo:42044:1,2016-04-02T07:00:00Z,26.1914,-97.0507,1018.65,11111222 
TABS,ioos:station:wmo:42044:1,2016-04-02T07:30:00Z,26.1914,-97.0507,1018.99,11111222 
TABS,ioos:station:wmo:42044:1,2016-04-02T08:00:00Z,26.1914,-97.0507,1018.43,11111222 
TABS,ioos:station:wmo:42044:1,2016-04-02T08:30:00Z,26.1914,-97.0507,1018.91,11111222 
TABS,ioos:station:wmo:42044:1,2016-04-02T09:00:00Z,26.1914,-97.0507,1019.46,11111222 
TABS,ioos:station:wmo:42044:1,2016-04-02T09:30:00Z,26.1914,-97.0507,1019.03,11111222 
TABS,ioos:station:wmo:42044:1,2016-04-02T10:00:00Z,26.1914,-97.0507,1019.43,11111222 
TABS,ioos:station:wmo:42044:1,2016-04-02T10:30:00Z,26.1914,-97.0507,1020.0,11111222 
TABS,ioos:station:wmo:42044:1,2016-04-02T11:00:00Z,26.1914,-97.0507,1020.38,11111222 
TABS,ioos:station:wmo:42044:1,2016-04-02T11:30:00Z,26.1914,-97.0507,1020.63,11111222 
TABS,ioos:station:wmo:42044:1,2016-04-02T12:00:00Z,26.1914,-97.0507,1020.6,11111222 
TABS,ioos:station:wmo:42044:1,2016-04-02T12:30:00Z,26.1914,-97.0507,1021.42,11111222 
TABS,ioos:station:wmo:42044:1,2016-04-02T13:00:00Z,26.1914,-97.0507,1021.96,11111222 
TABS,ioos:station:wmo:42044:1,2016-04-02T13:30:00Z,26.1914,-97.0507,1022.11,11111222 
TABS,ioos:station:wmo:42044:1,2016-04-02T14:00:00Z,26.1914,-97.0507,1023.02,11111222 
TABS,ioos:station:wmo:42044:1,2016-04-02T14:30:00Z,26.1914,-97.0507,1023.0,11111222 
TABS,ioos:station:wmo:42044:1,2016-04-02T15:00:00Z,26.1914,-97.0507,1023.6,11111222 
TABS,ioos:station:wmo:42044:1,2016-04-02T15:30:00Z,26.1914,-97.0507,1023.91,11111222 
TABS,ioos:station:wmo:42044:1,2016-04-02T16:00:00Z,26.1914,-97.0507,1024.32,11111222 
TABS,ioos:station:wmo:42044:1,2016-04-02T16:30:00Z,26.1914,-97.0507,1024.58,11111222 
TABS,ioos:station:wmo:42044:1,2016-04-02T17:00:00Z,26.1914,-97.0507,1025.34,11111222 
TABS,ioos:station:wmo:42044:1,2016-04-02T17:30:00Z,26.1914,-97.0507,1024.44,11111222 
TABS,ioos:station:wmo:42044:1,2016-04-02T18:00:00Z,26.1914,-97.0507,1024.3,11111222 
TABS,ioos:station:wmo:42044:1,2016-04-02T18:30:00Z,26.1914,-97.0507,1024.36,11111222 
TABS,ioos:station:wmo:42044:1,2016-04-02T19:00:00Z,26.1914,-97.0507,1023.87,11111222 
TABS,ioos:station:wmo:42044:1,2016-04-02T19:30:00Z,26.1914,-97.0507,1023.49,11111222 
TABS,ioos:station:wmo:42044:1,2016-04-02T20:00:00Z,26.1914,-97.0507,1023.44,11111222 
TABS,ioos:station:wmo:42044:1,2016-04-02T20:30:00Z,26.1914,-97.0507,1023.1,11111222 
TABS,ioos:station:wmo:42044:1,2016-04-02T21:00:00Z,26.1914,-97.0507,1022.69,11111222 
TABS,ioos:station:wmo:42044:1,2016-04-02T21:30:00Z,26.1914,-97.0507,1022.37,11111222 
TABS,ioos:station:wmo:42044:1,2016-04-02T22:00:00Z,26.1914,-97.0507,1022.21,11111222 
TABS,ioos:station:wmo:42044:1,2016-04-02T22:30:00Z,26.1914,-97.0507,1021.97,11111222 
TABS,ioos:station:wmo:42044:1,2016-04-02T23:00:00Z,26.1914,-97.0507,1022.1,11111222 
TABS,ioos:station:wmo:42044:1,2016-04-02T23:30:00Z,26.1914,-97.0507,1022.21,11111222 
TABS,ioos:station:wmo:42044:1,2016-04-03T00:00:00Z,26.1914,-97.0507,1022.28,11111222 
TABS,ioos:station:wmo:42044:1,2016-04-03T00:30:00Z,26.1914,-97.0507,1022.35,11111222 
TABS,ioos:station:wmo:42044:1,2016-04-03T01:00:00Z,26.1914,-97.0507,1022.64,11111222 
TABS,ioos:station:wmo:42044:1,2016-04-03T01:30:00Z,26.1914,-97.0507,1022.84,11111222 
TABS,ioos:station:wmo:42044:1,2016-04-03T02:00:00Z,26.1914,-97.0507,1023.21,11111222 
TABS,ioos:station:wmo:42044:1,2016-04-03T02:30:00Z,26.1914,-97.0507,1023.4,11111222 
TABS,ioos:station:wmo:42044:1,2016-04-03T03:00:00Z,26.1914,-97.0507,1023.67,11111222 
TABS,ioos:station:wmo:42044:1,2016-04-03T03:30:00Z,26.1914,-97.0507,1023.91,11111222 
TABS,ioos:station:wmo:42044:1,2016-04-03T04:00:00Z,26.1914,-97.0507,1024.12,11111222 
TABS,ioos:station:wmo:42044:1,2016-04-03T04:30:00Z,26.1914,-97.0507,1024.1,11111222 
TABS,ioos:station:wmo:42044:1,2016-04-03T05:00:00Z,26.1914,-97.0507,1024.23,11111222 
TABS,ioos:station:wmo:42044:1,2016-04-03T05:30:00Z,26.1914,-97.0507,1024.24,11111222 
TABS,ioos:station:wmo:42044:1,2016-04-03T06:00:00Z,26.1914,-97.0507,1024.1,11111222 
TABS,ioos:station:wmo:42044:1,2016-04-03T06:30:00Z,26.1914,-97.0507,1023.82,11111222 
TABS,ioos:station:wmo:42044:1,2016-04-03T07:00:00Z,26.1914,-97.0507,1023.74,11111222 
TABS,ioos:station:wmo:42044:1,2016-04-03T07:30:00Z,26.1914,-97.0507,1023.55,11111222 
TABS,ioos:station:wmo:42044:1,2016-04-03T08:00:00Z,26.1914,-97.0507,1023.19,11111222 
TABS,ioos:station:wmo:42044:1,2016-04-03T08:30:00Z,26.1914,-97.0507,1022.96,11111222 
TABS,ioos:station:wmo:42044:1,2016-04-03T09:00:00Z,26.1914,-97.0507,1022.94,11111222 
TABS,ioos:station:wmo:42044:1,2016-04-03T09:30:00Z,26.1914,-97.0507,1022.93,11111222 
TABS,ioos:station:wmo:42044:1,2016-04-03T10:00:00Z,26.1914,-97.0507,1023.0,11111222 
TABS,ioos:station:wmo:42044:1,2016-04-03T10:30:00Z,26.1914,-97.0507,1022.72,11111222 
TABS,ioos:station:wmo:42044:1,2016-04-03T11:00:00Z,26.1914,-97.0507,1023.06,11111222 
TABS,ioos:station:wmo:42044:1,2016-04-03T11:30:00Z,26.1914,-97.0507,1023.27,11111222 
TABS,ioos:station:wmo:42044:1,2016-04-03T12:00:00Z,26.1914,-97.0507,1023.38,11111222 
TABS,ioos:station:wmo:42044:1,2016-04-03T12:30:00Z,26.1914,-97.0507,1023.58,11111222 
TABS,ioos:station:wmo:42044:1,2016-04-03T13:00:00Z,26.1914,-97.0507,1023.89,11111222 
TABS,ioos:station:wmo:42044:1,2016-04-03T13:30:00Z,26.1914,-97.0507,1023.92,11111222 
TABS,ioos:station:wmo:42044:1,2016-04-03T14:00:00Z,26.1914,-97.0507,1024.05,11111222 
TABS,ioos:station:wmo:42044:1,2016-04-03T14:30:00Z,26.1914,-97.0507,1024.38,11111222 
TABS,ioos:station:wmo:42044:1,2016-04-03T15:00:00Z,26.1914,-97.0507,1024.78,11111222 
TABS,ioos:station:wmo:42044:1,2016-04-03T15:30:00Z,26.1914,-97.0507,1024.62,11111222 
TABS,ioos:station:wmo:42044:1,2016-04-03T16:00:00Z,26.1914,-97.0507,1024.89,11111222 
TABS,ioos:station:wmo:42044:1,2016-04-03T16:30:00Z,26.1914,-97.0507,1024.9,11111222 
TABS,ioos:station:wmo:42044:1,2016-04-03T17:00:00Z,26.1914,-97.0507,1024.72,11111222 
TABS,ioos:station:wmo:42044:1,2016-04-03T17:30:00Z,26.1914,-97.0507,1024.42,11111222 
TABS,ioos:station:wmo:42044:1,2016-04-03T18:00:00Z,26.1914,-97.0507,1024.07,11111222 
TABS,ioos:station:wmo:42044:1,2016-04-03T18:30:00Z,26.1914,-97.0507,1023.62,11111222 
TABS,ioos:station:wmo:42044:1,2016-04-03T19:00:00Z,26.1914,-97.0507,1023.24,11111222 
TABS,ioos:station:wmo:42044:1,2016-04-03T19:30:00Z,26.1914,-97.0507,1022.84,11111222 
TABS,ioos:station:wmo:42044:1,2016-04-03T20:00:00Z,26.1914,-97.0507,1022.43,11111222 
TABS,ioos:station:wmo:42044:1,2016-04-03T20:30:00Z,26.1914,-97.0507,1022.12,11111222 
TABS,ioos:station:wmo:42044:1,2016-04-03T21:00:00Z,26.1914,-97.0507,1021.48,11111222 
TABS,ioos:station:wmo:42044:1,2016-04-03T21:30:00Z,26.1914,-97.0507,1021.11,11111222 
TABS,ioos:station:wmo:42044:1,2016-04-03T22:00:00Z,26.1914,-97.0507,1020.77,11111222 
TABS,ioos:station:wmo:42044:1,2016-04-03T22:30:00Z,26.1914,-97.0507,1020.66,11111222 
TABS,ioos:station:wmo:42044:1,2016-04-03T23:00:00Z,26.1914,-97.0507,1020.58,11111222 
TABS,ioos:station:wmo:42044:1,2016-04-03T23:30:00Z,26.1914,-97.0507,1020.59,11111222 
TABS,ioos:station:wmo:42044:1,2016-04-04T00:00:00Z,26.1914,-97.0507,1020.73,11111222 
TABS,ioos:station:wmo:42044:1,2016-04-04T00:30:00Z,26.1914,-97.0507,1020.81,11111222 
TABS,ioos:station:wmo:42044:1,2016-04-04T01:00:00Z,26.1914,-97.0507,1021.02,11111222 
TABS,ioos:station:wmo:42044:1,2016-04-04T01:30:00Z,26.1914,-97.0507,1021.39,11111222 
TABS,ioos:station:wmo:42044:1,2016-04-04T02:00:00Z,26.1914,-97.0507,1021.77,11111222 
TABS,ioos:station:wmo:42044:1,2016-04-04T02:30:00Z,26.1914,-97.0507,1022.19,11111222 
TABS,ioos:station:wmo:42044:1,2016-04-04T03:00:00Z,26.1914,-97.0507,1022.5,11111222 
TABS,ioos:station:wmo:42044:1,2016-04-04T03:30:00Z,26.1914,-97.0507,1022.55,11111222 
TABS,ioos:station:wmo:42044:1,2016-04-04T04:00:00Z,26.1914,-97.0507,1022.58,11111222 
TABS,ioos:station:wmo:42044:1,2016-04-04T04:30:00Z,26.1914,-97.0507,1022.31,11111222 
TABS,ioos:station:wmo:42044:1,2016-04-04T05:00:00Z,26.1914,-97.0507,1022.36,11111222 
TABS,ioos:station:wmo:42044:1,2016-04-04T05:30:00Z,26.1914,-97.0507,1022.19,11111222 
TABS,ioos:station:wmo:42044:1,2016-04-04T06:00:00Z,26.1914,-97.0507,1021.83,11111222 
TABS,ioos:station:wmo:42044:1,2016-04-04T06:30:00Z,26.1914,-97.0507,1021.72,11111222 
TABS,ioos:station:wmo:42044:1,2016-04-04T07:00:00Z,26.1914,-97.0507,1021.33,11111222 
TABS,ioos:station:wmo:42044:1,2016-04-04T07:30:00Z,26.1914,-97.0507,1020.93,11111222 
TABS,ioos:station:wmo:42044:1,2016-04-04T08:00:00Z,26.1914,-97.0507,1020.77,11111222 
TABS,ioos:station:wmo:42044:1,2016-04-04T08:30:00Z,26.1914,-97.0507,1020.59,11111222 
TABS,ioos:station:wmo:42044:1,2016-04-04T09:00:00Z,26.1914,-97.0507,1020.33,11111222 
TABS,ioos:station:wmo:42044:1,2016-04-04T09:30:00Z,26.1914,-97.0507,1020.52,11111222 
TABS,ioos:station:wmo:42044:1,2016-04-04T10:00:00Z,26.1914,-97.0507,1020.45,11111222 
TABS,ioos:station:wmo:42044:1,2016-04-04T10:30:00Z,26.1914,-97.0507,1020.49,11111222 
TABS,ioos:station:wmo:42044:1,2016-04-04T11:00:00Z,26.1914,-97.0507,1020.62,11111222 
TABS,ioos:station:wmo:42044:1,2016-04-04T11:30:00Z,26.1914,-97.0507,1020.95,11111222 
TABS,ioos:station:wmo:42044:1,2016-04-04T12:00:00Z,26.1914,-97.0507,1021.3,11111222 
TABS,ioos:station:wmo:42044:1,2016-04-04T12:30:00Z,26.1914,-97.0507,1021.83,11111222 
TABS,ioos:station:wmo:42044:1,2016-04-04T13:00:00Z,26.1914,-97.0507,1022.26,11111222 
TABS,ioos:station:wmo:42044:1,2016-04-04T13:30:00Z,26.1914,-97.0507,1022.64,11111222 
TABS,ioos:station:wmo:42044:1,2016-04-04T14:00:00Z,26.1914,-97.0507,1023.04,11111222 
TABS,ioos:station:wmo:42044:1,2016-04-04T14:30:00Z,26.1914,-97.0507,1023.27,11111222 
TABS,ioos:station:wmo:42044:1,2016-04-04T15:00:00Z,26.1914,-97.0507,1023.42,11111222 
TABS,ioos:station:wmo:42044:1,2016-04-04T15:30:00Z,26.1914,-97.0507,1023.55,11111222 
TABS,ioos:station:wmo:42044:1,2016-04-04T16:00:00Z,26.1914,-97.0507,1023.7,11111222 
TABS,ioos:station:wmo:42044:1,2016-04-04T16:30:00Z,26.1914,-97.0507,1023.82,11111222 
TABS,ioos:station:wmo:42044:1,2016-04-04T17:00:00Z,26.1914,-97.0507,1023.47,11111222 
TABS,ioos:station:wmo:42044:1,2016-04-04T17:30:00Z,26.1914,-97.0507,1023.32,11111222 
TABS,ioos:station:wmo:42044:1,2016-04-04T18:00:00Z,26.1914,-97.0507,1023.11,11111222 
TABS,ioos:station:wmo:42044:1,2016-04-04T18:30:00Z,26.1914,-97.0507,1022.61,11111222 
TABS,ioos:station:wmo:42044:1,2016-04-04T19:00:00Z,26.1914,-97.0507,1022.16,11111222 
TABS,ioos:station:wmo:42044:1,2016-04-04T19:30:00Z,26.1914,-97.0507,1021.8,11111222 
TABS,ioos:station:wmo:42044:1,2016-04-04T20:00:00Z,26.1914,-97.0507,1021.34,11111222 
TABS,ioos:station:wmo:42044:1,2016-04-04T20:30:00Z,26.1914,-97.0507,1021.07,11111222 
TABS,ioos:station:wmo:42044:1,2016-04-04T21:00:00Z,26.1914,-97.0507,1020.63,11111222 
TABS,ioos:station:wmo:42044:1,2016-04-04T21:30:00Z,26.1914,-97.0507,1020.54,11111222 
TABS,ioos:station:wmo:42044:1,2016-04-04T22:00:00Z,26.1914,-97.0507,1020.44,11111222 
TABS,ioos:station:wmo:42044:1,2016-04-04T22:30:00Z,26.1914,-97.0507,1020.18,11111222 
TABS,ioos:station:wmo:42044:1,2016-04-04T23:00:00Z,26.1914,-97.0507,1020.3,11111222 
TABS,ioos:station:wmo:42044:1,2016-04-04T23:30:00Z,26.1914,-97.0507,1020.47,11111222 
TABS,ioos:station:wmo:42044:1,2016-04-05T00:00:00Z,26.1914,-97.0507,1020.66,11111222 
TABS,ioos:station:wmo:42044:1,2016-04-05T00:30:00Z,26.1914,-97.0507,1020.91,11111222 
TABS,ioos:station:wmo:42044:1,2016-04-05T01:00:00Z,26.1914,-97.0507,1021.19,11111222 
TABS,ioos:station:wmo:42044:1,2016-04-05T01:30:00Z,26.1914,-97.0507,1021.53,11111222 
TABS,ioos:station:wmo:42044:1,2016-04-05T02:00:00Z,26.1914,-97.0507,1021.91,11111222 
TABS,ioos:station:wmo:42044:1,2016-04-05T02:30:00Z,26.1914,-97.0507,1022.34,11111222 
TABS,ioos:station:wmo:42044:1,2016-04-05T03:00:00Z,26.1914,-97.0507,1022.42,11111222 
TABS,ioos:station:wmo:42044:1,2016-04-05T03:30:00Z,26.1914,-97.0507,1022.45,11111222 
TABS,ioos:station:wmo:42044:1,2016-04-05T04:00:00Z,26.1914,-97.0507,1022.66,11111222 
TABS,ioos:station:wmo:42044:1,2016-04-05T04:30:00Z,26.1914,-97.0507,1022.71,11111222 
TABS,ioos:station:wmo:42044:1,2016-04-05T05:00:00Z,26.1914,-97.0507,1022.61,11111222 
TABS,ioos:station:wmo:42044:1,2016-04-05T05:30:00Z,26.1914,-97.0507,1022.54,11111222 
TABS,ioos:station:wmo:42044:1,2016-04-05T06:00:00Z,26.1914,-97.0507,1022.46,11111222 
TABS,ioos:station:wmo:42044:1,2016-04-05T06:30:00Z,26.1914,-97.0507,1022.49,11111222 
TABS,ioos:station:wmo:42044:1,2016-04-05T07:00:00Z,26.1914,-97.0507,1022.33,11111222 
TABS,ioos:station:wmo:42044:1,2016-04-05T07:30:00Z,26.1914,-97.0507,1022.11,11111222 
TABS,ioos:station:wmo:42044:1,2016-04-05T08:00:00Z,26.1914,-97.0507,1021.75,11111222 
TABS,ioos:station:wmo:42044:1,2016-04-05T08:30:00Z,26.1914,-97.0507,1021.52,11111222 
TABS,ioos:station:wmo:42044:1,2016-04-05T09:00:00Z,26.1914,-97.0507,1021.32,11111222 
TABS,ioos:station:wmo:42044:1,2016-04-05T09:30:00Z,26.1914,-97.0507,1021.18,11111222 
TABS,ioos:station:wmo:42044:1,2016-04-05T10:00:00Z,26.1914,-97.0507,1021.14,11111222 
TABS,ioos:station:wmo:42044:1,2016-04-05T10:30:00Z,26.1914,-97.0507,1021.4,11111222 
TABS,ioos:station:wmo:42044:1,2016-04-05T11:00:00Z,26.1914,-97.0507,1021.51,11111222 
TABS,ioos:station:wmo:42044:1,2016-04-05T11:30:00Z,26.1914,-97.0507,1021.68,11111222 
TABS,ioos:station:wmo:42044:1,2016-04-05T12:00:00Z,26.1914,-97.0507,1021.97,11111222 
TABS,ioos:station:wmo:42044:1,2016-04-05T12:30:00Z,26.1914,-97.0507,1022.24,11111222 
TABS,ioos:station:wmo:42044:1,2016-04-05T13:00:00Z,26.1914,-97.0507,1022.57,11111222 
TABS,ioos:station:wmo:42044:1,2016-04-05T13:30:00Z,26.1914,-97.0507,1022.82,11111222 
TABS,ioos:station:wmo:42044:1,2016-04-05T14:00:00Z,26.1914,-97.0507,1023.11,11111222 
TABS,ioos:station:wmo:42044:1,2016-04-05T14:30:00Z,26.1914,-97.0507,1023.29,11111222 
TABS,ioos:station:wmo:42044:1,2016-04-05T15:00:00Z,26.1914,-97.0507,1023.41,11111222 
TABS,ioos:station:wmo:42044:1,2016-04-05T15:30:00Z,26.1914,-97.0507,1023.71,11111222 
TABS,ioos:station:wmo:42044:1,2016-04-05T16:00:00Z,26.1914,-97.0507,1023.71,11111222 
TABS,ioos:station:wmo:42044:1,2016-04-05T16:30:00Z,26.1914,-97.0507,1023.69,11111222 
TABS,ioos:station:wmo:42044:1,2016-04-05T17:00:00Z,26.1914,-97.0507,1023.74,11111222 
TABS,ioos:station:wmo:42044:1,2016-04-05T17:30:00Z,26.1914,-97.0507,1023.43,11111222 
TABS,ioos:station:wmo:42044:1,2016-04-05T18:00:00Z,26.1914,-97.0507,1023.07,11111222 
TABS,ioos:station:wmo:42044:1,2016-04-05T18:30:00Z,26.1914,-97.0507,1022.46,11111222 
TABS,ioos:station:wmo:42044:1,2016-04-05T19:00:00Z,26.1914,-97.0507,1022.0,11111222 
TABS,ioos:station:wmo:42044:1,2016-04-05T19:30:00Z,26.1914,-97.0507,1021.47,11111222 
TABS,ioos:station:wmo:42044:1,2016-04-05T20:00:00Z,26.1914,-97.0507,1020.85,11111222 
TABS,ioos:station:wmo:42044:1,2016-04-05T20:30:00Z,26.1914,-97.0507,1020.25,11111222 
TABS,ioos:station:wmo:42044:1,2016-04-05T21:00:00Z,26.1914,-97.0507,1019.68,11111222 
TABS,ioos:station:wmo:42044:1,2016-04-05T21:30:00Z,26.1914,-97.0507,1019.32,11111222 
TABS,ioos:station:wmo:42044:1,2016-04-05T22:00:00Z,26.1914,-97.0507,1019.22,11111222 
TABS,ioos:station:wmo:42044:1,2016-04-05T22:30:00Z,26.1914,-97.0507,1019.13,11111222 
TABS,ioos:station:wmo:42044:1,2016-04-05T23:00:00Z,26.1914,-97.0507,1019.13,11111222 
TABS,ioos:station:wmo:42044:1,2016-04-05T23:30:00Z,26.1914,-97.0507,1018.35,11111222 
TABS,ioos:station:wmo:42044:1,2016-04-06T00:00:00Z,26.1914,-97.0507,1018.34,11111222 
TABS,ioos:station:wmo:42044:1,2016-04-06T00:30:00Z,26.1914,-97.0507,1018.58,11111222 
TABS,ioos:station:wmo:42044:1,2016-04-06T01:00:00Z,26.1914,-97.0507,1018.67,11111222 
TABS,ioos:station:wmo:42044:1,2016-04-06T01:30:00Z,26.1914,-97.0507,1018.77,11111222 
TABS,ioos:station:wmo:42044:1,2016-04-06T02:00:00Z,26.1914,-97.0507,1018.63,11111222 
TABS,ioos:station:wmo:42044:1,2016-04-06T02:30:00Z,26.1914,-97.0507,1018.69,11111222 
TABS,ioos:station:wmo:42044:1,2016-04-06T03:00:00Z,26.1914,-97.0507,1019.11,11111222 
TABS,ioos:station:wmo:42044:1,2016-04-06T03:30:00Z,26.1914,-97.0507,1019.17,11111222 
TABS,ioos:station:wmo:42044:1,2016-04-06T04:00:00Z,26.1914,-97.0507,1019.33,11111222 
TABS,ioos:station:wmo:42044:1,2016-04-06T04:30:00Z,26.1914,-97.0507,1018.93,11111222 
TABS,ioos:station:wmo:42044:1,2016-04-06T05:00:00Z,26.1914,-97.0507,1018.58,11111222 
TABS,ioos:station:wmo:42044:1,2016-04-06T05:30:00Z,26.1914,-97.0507,1017.96,11111222 
TABS,ioos:station:wmo:42044:1,2016-04-06T06:00:00Z,26.1914,-97.0507,1017.46,11111222 
TABS,ioos:station:wmo:42044:1,2016-04-06T06:30:00Z,26.1914,-97.0507,1017.17,11111222 
TABS,ioos:station:wmo:42044:1,2016-04-06T07:00:00Z,26.1914,-97.0507,1016.68,11111222 
TABS,ioos:station:wmo:42044:1,2016-04-06T07:30:00Z,26.1914,-97.0507,1016.85,11111222 
TABS,ioos:station:wmo:42044:1,2016-04-06T08:00:00Z,26.1914,-97.0507,1016.2,11111222 
TABS,ioos:station:wmo:42044:1,2016-04-06T08:30:00Z,26.1914,-97.0507,1016.31,11111222 
TABS,ioos:station:wmo:42044:1,2016-04-06T09:00:00Z,26.1914,-97.0507,1015.89,11111222 
TABS,ioos:station:wmo:42044:1,2016-04-06T09:30:00Z,26.1914,-97.0507,1014.95,11111222 
TABS,ioos:station:wmo:42044:1,2016-04-06T10:00:00Z,26.1914,-97.0507,1014.94,11111222 
TABS,ioos:station:wmo:42044:1,2016-04-06T10:30:00Z,26.1914,-97.0507,1014.69,11111222 
TABS,ioos:station:wmo:42044:1,2016-04-06T11:00:00Z,26.1914,-97.0507,1014.72,11111222 
TABS,ioos:station:wmo:42044:1,2016-04-06T11:30:00Z,26.1914,-97.0507,1015.09,11111222 
TABS,ioos:station:wmo:42044:1,2016-04-06T12:00:00Z,26.1914,-97.0507,1015.38,11111222 
TABS,ioos:station:wmo:42044:1,2016-04-06T12:30:00Z,26.1914,-97.0507,1015.24,11111222 
TABS,ioos:station:wmo:42044:1,2016-04-06T13:00:00Z,26.1914,-97.0507,1015.65,11111222 
TABS,ioos:station:wmo:42044:1,2016-04-06T13:30:00Z,26.1914,-97.0507,1015.68,11111222 
TABS,ioos:station:wmo:42044:1,2016-04-06T14:00:00Z,26.1914,-97.0507,1015.92,11111222 
TABS,ioos:station:wmo:42044:1,2016-04-06T14:30:00Z,26.1914,-97.0507,1016.41,11111222 
TABS,ioos:station:wmo:42044:1,2016-04-06T15:00:00Z,26.1914,-97.0507,1016.49,11111222 
TABS,ioos:station:wmo:42044:1,2016-04-06T15:30:00Z,26.1914,-97.0507,1016.76,11111222 
TABS,ioos:station:wmo:42044:1,2016-04-06T16:00:00Z,26.1914,-97.0507,1016.78,11111222 
TABS,ioos:station:wmo:42044:1,2016-04-06T16:30:00Z,26.1914,-97.0507,1016.71,11111222 
TABS,ioos:station:wmo:42044:1,2016-04-06T17:00:00Z,26.1914,-97.0507,1017.07,11111222 
TABS,ioos:station:wmo:42044:1,2016-04-06T17:30:00Z,26.1914,-97.0507,1016.74,11111222 
TABS,ioos:station:wmo:42044:1,2016-04-06T18:00:00Z,26.1914,-97.0507,1017.33,11111222 
TABS,ioos:station:wmo:42044:1,2016-04-06T18:30:00Z,26.1914,-97.0507,1018.76,11111222 